Location: Sweet Grass
(48.9965°N, 111.9649°W)
Time: 12:18:02
(UTC+00:00)

AO-73 - Visible Passes

Search period start: 28 March 2023 00:00
Search period end: 07 April 2023 00:00
Orbit: 573 x 649 km, 97.7° (Epoch: 27 March)

Date Brightness Start Highest point End Pass type
(mag) Time Alt. Az. Time Alt. Az. Time Alt. Az.
28 Mar ? 10:17:20 10° NE 10:20:44 23° E 10:22:19 19° SE visible
28 Mar ? 11:52:56 10° N 11:56:49 37° WNW 11:59:19 19° SW visible
29 Mar ? 10:31:35 10° NNE 10:35:21 32° E 10:37:07 23° SE visible
29 Mar ? 12:07:41 10° N 12:11:15 28° WNW 12:14:07 13° WSW visible
30 Mar ? 10:45:55 10° NNE 10:49:56 45° E 10:51:55 25° SSE visible
30 Mar ? 12:22:30 10° NNW 12:25:37 21° WNW 12:28:41 10° WSW visible
31 Mar ? 11:00:20 10° NNE 11:04:29 64° ESE 11:06:41 26° S visible
31 Mar ? 12:37:28 10° NNW 12:39:57 16° WNW 12:42:25 10° W visible
01 Apr ? 11:14:48 10° NNE 11:18:58 89° W 11:21:28 23° SSW visible
02 Apr ? 09:54:48 10° NE 09:57:01 14° E 09:59:11 10° ESE visible
02 Apr ? 11:29:19 10° N 11:33:26 63° WNW 11:36:13 19° SSW visible
03 Apr ? 10:08:37 10° NE 10:11:38 19° E 10:13:58 13° SE visible
03 Apr ? 11:43:52 10° N 11:47:49 45° WNW 11:50:57 15° SW visible
04 Apr ? 10:22:41 10° NE 10:26:12 26° E 10:28:42 15° SE visible
04 Apr ? 11:58:30 10° N 12:02:12 32° WNW 12:05:41 11° SW visible
05 Apr ? 10:36:53 10° NNE 10:40:43 36° E 10:43:25 17° SSE visible
05 Apr ? 12:13:11 10° N 12:16:31 24° WNW 12:19:49 10° WSW visible
06 Apr ? 10:51:10 10° NNE 10:55:12 52° E 10:58:07 17° S visible
